Regional Weather Roundup
Issued by NWS

Home | Current Version | Previous Version | Graphics & Text | Print | Product List | Glossary On
Versions: 1 2 3 4 5 6 7 8 9 10 11 12 13 14 15 16 17 18 19 20 21 22 23 24 25 26 27 28 29 30 31 32 33 34 35 36 37 38 39 40 41 42 43 44 45 46 47 48 49 50
000
ASUS45 KTFX 270119
RWRMT
MONTANA HOURLY WEATHER ROUNDUP
NATIONAL WEATHER SERVICE GREAT FALLS MT
619 PM MST THU FEB 26 2015

NOTE: "FAIR" INDICATES FEW OR NO CLOUDS BELOW 12000 FEET WITH NO
SIGNIFICANT WEATHER AND/OR OBSTRUCTIONS TO VISIBILITY.

* THESE STATIONS ARE NOT UNDER NWS QUALITY CONTROL. THEY DO NOT
   REPORT WEATHER SUCH AS PRECIPITATION OR FOG.

MTZ001>007-043-270200-
WEST OF THE DIVIDE
CITY           SKY/WX    TMP DP  RH WIND       PRES   REMARKS
KALISPELL      CLOUDY    32  18  56 CALM      30.02F
MISSOULA       CLOUDY    36  18  48 E9        30.01F WCI  29
BUTTE          PTCLDY    18  10  71 S18       29.97F WCI   2
MULLAN PASS    CLOUDY    27  18  69 CALM      29.90F
* ANACONDA     MOCLDY    18  12  77 NW3        N/A
* ESSEX        N/A       25  13  60 SE6        N/A   WCI  18
* EUREKA APT   CLOUDY    36  14  40 SE6        N/A   WCI  31
* HAMILTON APT PTCLDY    34  16  48 N3        29.98S
* LIBBY APT    CLOUDY    39  19  45 CALM      30.00F
* LINCOLN      N/A       25   7  46 NE8        N/A   WCI  16
* LOOKOUT PASS N/A       32  21  64 NW4        N/A
* POLSON       N/A       30  17  58 N1         N/A
* RONAN APT    PTCLDY    34  21  59 W5         N/A   WCI  29
* SEELEY LAKE  N/A       33  10  38 SW3        N/A
* THOMP F APT  CLOUDY    29   5  36 N7G17      N/A   WCI  22
$$

MTZ008-052>055-270200-
SOUTHWEST MONTANA
CITY           SKY/WX    TMP DP  RH WIND       PRES   REMARKS
BOZEMAN        PTCLDY    18   9  68 SE13      30.08F WCI   5
DILLON         PTCLDY    19  10  68 NE13      29.98S WCI   6
* W YELLOWSTON PTCLDY    23   7  50 N3G11      N/A
* THREE FORKS  PTCLDY    23  12  63 N/A        N/A
* BOULDER HILL N/A       15   6  67 NE1        N/A
* MONIDA PASS  N/A       20  10  65 N11        N/A   WCI   8
* RAYNOLDS PAS N/A        9   9 100 N11        N/A   WCI  -5
* WHITEHALL    N/A       21   9  60 SE11G19    N/A   WCI   9
* WISE RIVER   N/A       25  11  55 SE10G21    N/A   WCI  15
$$

MTZ009>010-012-014-046-048-049-054-270200-
EAST SLOPES AND CENTRAL MONTANA
CITY           SKY/WX    TMP DP  RH WIND       PRES   REMARKS
CUT BANK       LGT SNOW  12   7  80 SE12      30.11F WCI  -2
GREAT FALLS    PTCLDY    12   5  73 E12       30.14F WCI  -2
HELENA         PTCLDY    21   9  60 CALM      30.10F
MALMSTROM AFB  PTCLDY    12   7  80 NE6       30.17F WCI   2
* CONRAD       PTCLDY    16   7  67 E10G17     N/A   WCI   4
* DEARBORN     N/A       16   8  71 VRB5       N/A   WCI   8
* EAST GLACIER N/A        4   0  83 E2         N/A
* MONARCH      N/A        4  -8  57 E8         N/A   WCI  -9
* PENDROY      N/A       10   6  84 S13        N/A   WCI  -5
* ROGERS PASS  N/A        4   0  83 W1         N/A
* SWEET GRASS  N/A       10   4  76 S22G30     N/A   WCI -10
* WHITE SULPH  N/A       10  -1  61 NE9G15     N/A   WCI  -3
$$

MTZ011-013-016-021-035-040-045-047-050-051-270200-
NORTH CENTRAL MONTANA
CITY           SKY/WX    TMP DP  RH WIND       PRES   REMARKS
HAVRE          PTCLDY    16   3  56 S3        30.27F
LEWISTOWN      PTCLDY     9   0  66 E10       30.16F WCI  -5
* N BAR RANCH  PTCLDY     3  -2  79 E9        30.18F WCI -11
* CHINOOK      CLEAR     10   0  64 E9        30.32F WCI  -3
* FORT BENTON  PTCLDY    14   7  73 E8        30.25F WCI   3
* CHESTER      N/A       14   4  64 SE7G12     N/A   WCI   4
* DENTON       N/A       10  -1  61 SE8        N/A   WCI  -2
* GEYSER       N/A        8   0  70 N5         N/A   WCI  -1
* JUDITH GAP   N/A        8   2  76 SE14G19    N/A   WCI  -9
* LOMA         N/A       14   6  70 E16        N/A   WCI  -2
$$

MTZ017>020-022>027-061-062-270200-
NORTHEAST MONTANA
CITY           SKY/WX    TMP DP  RH WIND       PRES   REMARKS
GLASGOW        CLEAR      9  -6  50 SE8       30.42F WCI  -3
GLENDIVE       PTCLDY    10  -6  48 CALM      30.44F
JORDAN         CLEAR     10  -4  53 S6        30.38F
SIDNEY         CLEAR     10  -8  43 CALM      30.52F
WOLF POINT     PTCLDY    12  -4  48 CALM      30.47F
* BEAVER HILL  N/A        9  -6  50 NE1        N/A
* CIRCLE       N/A       11  -2  55 N/A        N/A
* LINDSAY DVD  N/A        6  -5  60 E6         N/A   WCI  -5
* NAVAJO       N/A        4  -5  66 E4         N/A
* PLENTYWOOD A CLEAR      1  -9  62 E5        30.46F WCI  -9
* POPLAR APT   PTCLDY    10  -4  53 S3        30.48F
* SACO         N/A       10  -4  53 E8         N/A   WCI  -2
$$

MTZ028>042-056>058-270200-
SOUTHCENTRAL AND SOUTHEAST MONTANA
CITY           SKY/WX    TMP DP  RH WIND       PRES   REMARKS
BAKER          CLEAR      7  -4  60 CALM      30.40F
BILLINGS       PTCLDY    10   0  64 SE10      30.26F WCI  -4
LIVINGSTON     CLOUDY    10   1  67 E13       30.13F WCI  -5
MILES CITY     CLEAR      9   0  66 S7        30.41F WCI  -2
* BIG TIMBER A PTCLDY     9   1  70 E6        30.17F WCI  -1
* FORSYTH APT  PTCLDY     9   0  66 SE5       30.39F
* LAUREL APT   PTCLDY    10  -6  48 E6         N/A
* ROUNDUP APT  N/A       12  -2  53 N/A        N/A
* ALZADA       N/A        1  -6  72 NE2        N/A
* HYSHAM       N/A        6  -5  60 E4         N/A
* LAME DEER    N/A        2  -3  79 SE6        N/A   WCI  -9
* REED POINT   N/A       13   4  67 SE3        N/A
* ROSCOE HILL  N/A        3  -3  76 E4         N/A
$$

REGIONAL REPORTS...DAKOTAS
CITY           SKY/WX    TMP DP  RH WIND       PRES   REMARKS
WILLISTON      PTCLDY     0  -9  65 NW3       30.50F
DICKINSON      CLEAR      5  -6  60 N5        30.42S WCI  -5
BEACH          CLEAR      9  -4  55 CALM      30.42F
CROSBY         CLEAR     -4  -9  79 CALM      30.51F
TIOGA          CLEAR     -4  -8  83 N3        30.50S
WATFORD CITY   CLEAR      0  -8  68 E3        30.47F
BISMARCK       CLEAR      3  -6  66 N9        30.53S WCI -11
GRAND FORKS    CLEAR      0  -9  65 NW6       30.52R WCI -12
FARGO          PTCLDY     3  -6  66 W8        30.52F WCI -10
BUFFALO SD     CLEAR      7  -6  55 N6        30.33S WCI  -4
RAPID CITY     PTCLDY     0  -8  68 NW8       30.39S WCI -14
$$

REGIONAL REPORTS...WYOMING/IDAHO/WASHINGTON
CITY           SKY/WX    TMP DP  RH WIND       PRES   REMARKS
GILLETTE       CLEAR      3  -8  60 CALM      30.24S
SHERIDAN       CLOUDY     7  -2  66 SE5       30.25F WCI  -2
CODY           CLOUDY     9   7  91 NE7       30.11F WCI  -2
YELLOWSTONE LA CLEAR     16  -2  45 VRB3      29.88F
SALMON         CLOUDY    37  19  48 CALM      29.92S
MULLAN PASS    CLOUDY    27  18  69 CALM      29.90S
SAND POINT     CLOUDY    37  32  82 CALM      30.00F
SPOKANE        CLOUDY    41  30  65 N8        29.98F
$$

REGIONAL REPORTS...ALBERTA
CITY           SKY/WX    TMP DP  RH WIND       PRES   REMARKS
CALGARY        CLOUDY    14   7  73 S15       30.05F WCI  -1
LETHBRIDGE     MOCLDY    14   9  80 SE8G22    30.13F WCI   3
MEDICINE HAT   FAIR      12   3  67 SE7       30.26F WCI   1
EDMONTON       MOCLDY    10   3  73 SE10      30.16F WCI  -4
WATERTON GATE  N/A        7   1  76 NE2        N/A
CARDSTON       N/A       10   7  88 S9         N/A   WCI  -3
MILK RIVER     N/A       10   7  88 S17        N/A   WCI  -8
$$

REGIONAL REPORTS...SASKATCHEWAN
CITY           SKY/WX    TMP DP  RH WIND       PRES   REMARKS
SWIFT CURRENT  CLEAR      3  -4  72 SE12      30.31F WCI -14
REGINA         N/A       -6  -9  87 S6        30.48F WCI -19
VAL MARIE      N/A       10  -2  58 S10        N/A   WCI  -4
ASSINIBOIA     N/A       -4 -11  71 SE8        N/A   WCI -19
CORONACH       N/A        7  -2  66 E7         N/A   WCI  -5

$$




USA.gov is the U.S. government's official web portal to all federal, state and local government web resources and services.